Date String (YYYY-MM-DD hh:mm:ss) UTC,Instrument flags,absolute air pressure of the measurement (hPa),sample flow rate (lpm),inlet stack bypass flow (lpm),air temperature of the measurement (°C),ambient temperature measured by the external sensor (°C),aerosol sample conditioner tube jacket temperature (°C),OPC LED temperature (°C),internal box temperature (°C),relative humidity of the measurement (%),span deviation,mass concentration of particles derived from Lorenz-Mie calculation of OPC scattering (μg/m³),mass concentration of particles derived from Lorenz-Mie calculation of OPC scattering (μg/m³),mass concentration of particles derived from Lorenz-Mie calculation of OPC scattering (μg/m³)
DateTimeUTC,F1_M11,P_M11,Q1_M11,Q2_M11,T1_M11,T2_M11,T3_M11,T4_M11,T5_M11,U1_M11,ZSPAN_M11,X0_M11,X2_M11,X1_M11
2023-07-12 12:00:00,SystemResetWarning,0831.2,5.00,000.00,029.4,027.4,000.0,038.0,030.9,13.9,0000.0,0009.87,0003.95,0003.27
2023-07-12 12:01:00,SystemResetWarning,0831.3,5.01,000.00,029.4,027.6,000.0,038.0,031.0,14.0,0000.0,0009.66,0003.95,0003.27
2023-07-12 12:02:00,SystemResetWarning,0831.3,5.00,000.00,029.5,027.8,000.0,038.0,031.0,14.0,0000.0,0009.62,0003.93,0003.27
2023-07-12 12:03:00,SystemResetWarning,0831.3,5.00,000.00,029.5,027.9,000.0,038.0,031.1,13.9,0000.0,0009.53,0003.93,0003.28
2023-07-12 12:04:00,SystemResetWarning,0831.3,4.99,000.00,029.5,028.1,000.0,038.0,031.1,13.9,0000.0,0009.05,0003.95,0003.29
2023-07-12 12:05:00,SystemResetWarning,0831.3,4.99,000.00,029.5,028.2,000.0,038.0,031.2,13.8,0000.0,0009.11,0003.93,0003.29
2023-07-12 12:06:00,SystemResetWarning,0831.3,5.01,000.00,029.6,028.3,000.0,038.1,031.2,13.8,0000.0,0009.06,0003.92,0003.28
2023-07-12 12:07:00,SystemResetWarning,0831.3,5.00,000.00,029.6,028.3,000.0,038.1,031.2,13.8,0000.0,0009.33,0003.96,0003.29
2023-07-12 12:08:00,SystemResetWarning,0831.3,5.01,000.00,029.6,028.4,000.0,038.1,031.3,13.6,0000.0,0009.46,0003.94,0003.29
2023-07-12 12:09:00,SystemResetWarning,0831.3,4.99,000.00,029.7,028.5,000.0,038.1,031.3,13.6,0000.0,0009.44,0003.94,0003.29
2023-07-12 12:10:00,SystemResetWarning,0831.4,4.99,000.00,029.7,028.5,000.0,038.1,031.3,13.5,0000.0,0009.15,0003.95,0003.29
2023-07-12 12:11:00,SystemResetWarning,0831.4,5.00,000.00,029.7,028.5,000.0,038.2,031.3,13.5,0000.0,0008.79,0003.93,0003.30
2023-07-12 12:12:00,SystemResetWarning,0831.4,5.00,000.00,029.7,028.6,000.0,038.2,031.4,13.5,0000.0,0008.81,0003.91,0003.30
2023-07-12 12:13:00,SystemResetWarning,0831.4,4.99,000.00,029.8,027.4,000.0,038.1,031.3,13.5,0000.0,0008.70,0003.90,0003.30
2023-07-12 12:14:00,SystemResetWarning,0831.4,5.01,000.00,029.7,025.7,000.0,038.0,031.0,13.6,0000.0,0008.57,0003.89,0003.30
2023-07-12 12:15:00,SystemResetWarning,0831.4,5.01,000.00,029.6,025.5,000.0,037.9,030.8,13.6,0000.0,0008.49,0003.87,0003.30
2023-07-12 12:16:00,SystemResetWarning,0831.4,5.00,000.00,029.5,025.7,000.0,037.9,030.7,13.7,0000.0,0008.21,0003.88,0003.30
2023-07-12 12:17:00,SystemResetWarning,0831.4,5.00,000.00,029.4,026.1,000.0,038.0,030.7,13.8,0000.0,0008.13,0003.88,0003.31
2023-07-12 12:18:00,SystemResetWarning,0831.4,5.00,000.00,029.4,026.5,000.0,038.0,030.8,13.8,0000.0,0008.10,0003.84,0003.32
2023-07-12 12:19:00,SystemResetWarning,0831.4,5.00,000.00,029.4,026.9,000.0,038.0,030.8,13.7,0000.0,0008.30,0003.87,0003.32
2023-07-12 12:20:00,SystemResetWarning,0831.5,5.00,000.00,029.4,027.2,000.0,038.0,030.9,13.7,0000.0,0008.66,0003.89,0003.32
2023-07-12 12:21:00,SystemResetWarning,0831.4,4.98,000.00,029.4,027.4,000.0,038.0,030.9,13.7,0000.0,0008.64,0003.90,0003.33
2023-07-12 12:22:00,SystemResetWarning,0831.5,5.00,000.00,029.4,027.6,000.0,038.0,031.0,13.7,0000.0,0008.52,0003.89,0003.34
2023-07-12 12:23:00,SystemResetWarning,0831.5,5.02,000.00,029.4,027.8,000.0,038.0,031.0,13.8,0000.0,0008.50,0003.90,0003.35
2023-07-12 12:24:00,SystemResetWarning,0831.5,5.00,000.00,029.5,027.9,000.0,038.0,031.1,14.0,0000.0,0009.33,0003.93,0003.36
2023-07-12 12:25:00,SystemResetWarning,0831.5,4.99,000.00,029.5,028.1,000.0,038.0,031.1,14.4,0000.0,0009.61,0003.94,0003.36
2023-07-12 12:26:00,SystemResetWarning,0831.6,4.99,000.00,029.5,028.1,000.0,038.0,031.1,14.4,0000.0,0009.57,0003.95,0003.37
2023-07-12 12:27:00,SystemResetWarning,0831.6,5.00,000.00,029.6,028.2,000.0,038.0,031.2,14.6,0000.0,0009.46,0003.93,0003.38
2023-07-12 12:28:00,SystemResetWarning,0831.6,5.01,000.00,029.6,028.3,000.0,038.1,031.2,14.5,0000.0,0009.74,0003.95,0003.38
2023-07-12 12:29:00,SystemResetWarning,0831.5,5.00,000.00,029.6,028.4,000.0,038.1,031.2,14.3,0000.0,0009.89,0003.98,0003.38
2023-07-12 12:30:00,SystemResetWarning,0831.6,4.99,000.00,029.6,028.4,000.0,038.1,031.3,14.3,0000.0,0009.34,0003.98,0003.40
2023-07-12 12:31:00,SystemResetWarning,0831.5,4.99,000.00,029.7,028.5,000.0,038.1,031.3,14.7,0000.0,0009.05,0004.00,0003.41
2023-07-12 12:32:00,SystemResetWarning,0831.6,5.01,000.00,029.7,028.5,000.0,038.1,031.3,14.1,0000.0,0009.06,0004.00,0003.42
2023-07-12 12:33:00,SystemResetWarning,0831.6,5.01,000.00,029.7,028.6,000.0,038.2,031.3,14.3,0000.0,0009.15,0004.00,0003.42
2023-07-12 12:34:00,SystemResetWarning,0831.6,4.98,000.00,029.7,028.6,000.0,038.2,031.4,14.7,0000.0,0009.26,0004.03,0003.43
2023-07-12 12:35:00,SystemResetWarning,0831.6,5.01,000.00,029.8,028.6,000.0,038.2,031.4,14.8,0000.0,0008.49,0004.05,0003.44
2023-07-12 12:36:00,SystemResetWarning,0831.6,5.01,000.00,029.8,028.3,000.0,038.2,031.4,14.2,0000.0,0008.42,0004.06,0003.45
2023-07-12 12:37:00,SystemResetWarning,0831.6,4.98,000.00,029.7,026.3,000.0,038.1,031.1,14.3,0000.0,0008.69,0004.09,0003.45
2023-07-12 12:38:00,SystemResetWarning,0831.5,5.02,000.00,029.7,025.6,000.0,038.0,030.9,14.3,0000.0,0009.20,0004.11,0003.46
2023-07-12 12:39:00,SystemResetWarning,0831.6,5.01,000.00,029.6,025.7,000.0,038.0,030.7,14.0,0000.0,0009.00,0004.11,0003.47
2023-07-12 12:40:00,SystemResetWarning,0831.6,4.99,000.00,029.5,026.1,000.0,038.0,030.7,13.8,0000.0,0009.03,0004.13,0003.48
2023-07-12 12:41:00,SystemResetWarning,0831.6,5.00,000.00,029.4,026.4,000.0,038.0,030.8,14.0,0000.0,0009.07,0004.16,0003.48
2023-07-12 12:42:00,SystemResetWarning,0831.6,5.00,000.00,029.4,026.8,000.0,038.0,030.8,14.0,0000.0,0009.34,0004.18,0003.48
2023-07-12 12:43:00,SystemResetWarning,0831.6,5.01,000.00,029.4,027.1,000.0,038.0,030.9,14.1,0000.0,0009.67,0004.20,0003.49
2023-07-12 12:44:00,SystemResetWarning,0831.6,5.00,000.00,029.4,027.3,000.0,038.0,031.0,14.2,0000.0,0010.10,0004.21,0003.49
2023-07-12 12:45:00,SystemResetWarning,0831.6,5.00,000.00,029.5,027.6,000.0,038.0,031.0,14.5,0000.0,0010.01,0004.21,0003.50
2023-07-12 12:46:00,SystemResetWarning,0831.6,5.00,000.00,029.5,027.7,000.0,038.0,031.0,14.4,0000.0,0009.98,0004.21,0003.50
2023-07-12 12:47:00,SystemResetWarning,0831.6,4.98,000.00,029.5,027.9,000.0,038.0,031.1,14.4,0000.0,0010.01,0004.23,0003.51
2023-07-12 12:48:00,SystemResetWarning,0831.5,5.00,000.00,029.5,028.0,000.0,038.0,031.1,14.5,0000.0,0009.83,0004.23,0003.52
2023-07-12 12:49:00,SystemResetWarning,0831.6,5.01,000.00,029.5,028.1,000.0,038.0,031.1,14.6,0000.0,0009.81,0004.24,0003.53
2023-07-12 12:50:00,SystemResetWarning,0831.6,4.99,000.00,029.6,028.2,000.0,038.1,031.2,14.1,0000.0,0010.09,0004.22,0003.53
2023-07-12 12:51:00,SystemResetWarning,0831.6,4.99,000.00,029.6,028.3,000.0,038.1,031.2,14.1,0000.0,0010.10,0004.21,0003.52
2023-07-12 12:52:00,SystemResetWarning,0831.6,5.02,000.00,029.6,028.3,000.0,038.1,031.2,14.5,0000.0,0010.45,0004.20,0003.52
2023-07-12 12:53:00,SystemResetWarning,0831.6,5.01,000.00,029.6,028.4,000.0,038.1,031.2,14.4,0000.0,0010.35,0004.19,0003.53
2023-07-12 12:54:00,SystemResetWarning,0831.6,4.99,000.00,029.7,028.4,000.0,038.1,031.3,14.3,0000.0,0010.44,0004.21,0003.52
2023-07-12 12:55:00,SystemResetWarning,0831.6,4.99,000.00,029.7,028.5,000.0,038.1,031.3,14.3,0000.0,0009.83,0004.22,0003.53
2023-07-12 12:56:00,SystemResetWarning,0831.6,5.01,000.00,029.7,028.5,000.0,038.2,031.3,14.2,0000.0,0009.95,0004.23,0003.53
2023-07-12 12:57:00,SystemResetWarning,0831.6,5.00,000.00,029.7,028.5,000.0,038.2,031.3,14.7,0000.0,0010.91,0004.23,0003.53
2023-07-12 12:58:00,SystemResetWarning,0831.7,4.99,000.00,029.8,028.6,000.0,038.2,031.4,14.2,0000.0,0011.56,0004.22,0003.52
2023-07-12 12:59:00,SystemResetWarning,0831.7,5.00,000.00,029.8,028.6,000.0,038.2,031.4,14.6,0000.0,0011.52,0004.19,0003.51
